[Iaude] MPEC U126: 2016 UF57 [a=0.93,e=0.30,i=44.0,H=23.9]

mpec at si.edu mpec at si.edu
Mon Oct 31 18:33:56 EDT 2016


M.P.E.C. 2016-U126                               Issued 2016 Oct. 31, 22:29 UT
 
     The Minor Planet Electronic Circulars contain information on unusual
         minor planets and routine data on comets.  They are published
    on behalf of Division F of the International Astronomical Union by the
          Minor Planet Center, Smithsonian Astrophysical Observatory,
                          Cambridge, MA 02138, U.S.A.

             Prepared using the Tamkin Foundation Computer Network

                              MPC at CFA.HARVARD.EDU
            URL http://www.minorplanetcenter.net/    ISSN 1523-6714


                                   2016 UF57
 
Observations:
     K16U57F* C2016 10 30.24652 00 32 30.16 +03 08 48.7          19.8 VqEU126G96
     K16U57F  C2016 10 30.25706 00 32 18.95 +03 11 32.7          20.2 VqEU126G96
     K16U57F  C2016 10 30.26530 00 32 10.24 +03 13 40.2          20.2 VqEU126G96
     K16U57F  C2016 10 30.26957 00 32 05.71 +03 14 46.6          20.1 VqEU126G96
     K16U57F  C2016 10 30.30612 00 31 27.20 +03 24 12.1          20.0 VqEU126G96
     K16U57F  C2016 10 30.30653 00 31 26.84 +03 24 17.1          19.6 VqEU126G96
     K16U57F  C2016 10 30.30711 00 31 26.27 +03 24 26.0          20.2 VqEU126G96
     K16U57F  C2016 10 30.34839 00 30 43.18 +03 35 00.2          20.5 VqEU126I52
     K16U57F  C2016 10 30.34915 00 30 42.38 +03 35 11.8          20.5 VqEU126I52
     K16U57F  C2016 10 30.34992 00 30 41.61 +03 35 23.8          20.5 VqEU126I52
     K16U57F  C2016 10 30.35068 00 30 40.80 +03 35 35.0          20.2 VqEU126I52
     K16U57F KC2016 10 30.86848 00 22 16.54 +05 42 40.7          20.2 RqEU126104
     K16U57F KC2016 10 30.87239 00 22 12.72 +05 43 36.2          20.1 RqEU126104
     K16U57F KC2016 10 30.87630 00 22 08.92 +05 44 31.6          20.1 RqEU126104
     K16U57F  C2016 10 31.26870 00 16 06.13 +07 14 39.8          21.2 VqEU126I52
     K16U57F  C2016 10 31.26946 00 16 05.47 +07 14 50.2          20.7 VqEU126I52
     K16U57F  C2016 10 31.27099 00 16 04.04 +07 15 11.2                qEU126I52
     K16U57F KC2016 10 31.41606 00 13 57.50 +07 48 37.3          20.6 RtEU126474
     K16U57F KC2016 10 31.41788 00 13 55.76 +07 49 00.9          20.4 RtEU126474
     K16U57F KC2016 10 31.41970 00 13 54.14 +07 49 24.1          20.2 RtEU126474
     K16U57F KC2016 10 31.83593 00 07 59.98 +09 14 59.4          20.4 RoEU126K51
     K16U57F KC2016 10 31.83735 00 07 58.78 +09 15 16.8          20.2 RoEU126K51
     K16U57F KC2016 10 31.83950 00 07 56.95 +09 15 43.8          20.5 RoEU126K51
 
Observer details:
104 San Marcello Pistoiese.  Observers P. Bacci, M. Maestripieri.  Measurers
    P. Bacci, L. Tesi, G. Fagioli.  0.60-m f/4 reflector + CCD.
474 Mount John Observatory, Lake Tekapo.  Observers A. C. Gilmore,
    P. M. Kilmartin.  Measurer P. M. Kilmartin.  1.0-m f/7.7 reflector + CCD.
G96 Mt. Lemmon Survey.  Observer D. C. Fuls.  Measurers E. J. Christensen,
    D. C. Fuls, A. R. Gibbs, A. D. Grauer, J. A. Johnson, R. A. Kowalski,
    S. M. Larson, G. J. Leonard, R. G. Matheny, R. L. Seaman, F. C. Shelly.
    1.5-m reflector + 10K CCD.
I52 Steward Observatory, Mt. Lemmon Station.  Observers J. A. Johnson,
    G. J. Leonard.  Measurers E. J. Christensen, D. C. Fuls, A. R. Gibbs,
    A. D. Grauer, J. A. Johnson, R. A. Kowalski, S. M. Larson, G. J. Leonard,
    R. G. Matheny, R. L. Seaman, F. C. Shelly.  1.0-m reflector + CCD.
K51 Osservatorio del Celado, Castello Tesino.  Observers G. Favero, R. Furgoni.
    Measurer R. Furgoni.  0.80-m f/4 reflector + CCD.
 
Orbital elements:
2016 UF57                                                Earth MOID = 0.0838 AU
Epoch 2016 July 31.0 TT = JDT 2457600.5                 MPC
M   9.72346              (2000.0)            P               Q
n   1.09868245     Peri.  222.65618     -0.33047057     +0.85808255
a   0.9301534      Node    34.46485     -0.56339817     +0.15475561
e   0.2969316      Incl.   43.99104     -0.75721312     -0.48963766
P   0.90           H   23.9           G   0.15           U   8
Residuals in seconds of arc
161030 G96  0.3+  0.1-    161030 I52  0.0   0.0     161031 I52  0.3-  0.3+
161030 G96  0.3-  0.2+    161030 I52  0.5+  0.3+    161031 474  0.9+  0.2+
161030 G96  0.1-  0.2-    161030 I52  0.1+  0.2-    161031 474  0.6-  0.1+
161030 G96  0.4-  0.1+    161030 104  0.3+  0.1-    161031 474  0.3-  0.4-
161030 G96  0.9-  1.0+    161030 104  0.1-  0.1-    161031 K51  0.2+  0.2-
161030 G96  0.2+  0.4-    161030 104  0.2-  0.1-    161031 K51  0.3+  0.1-
161030 G96  0.7+  0.4-    161031 I52  0.6-  0.6-    161031 K51  0.2+  0.7+
161030 I52  0.2+  0.1+    161031 I52  0.0   0.3-

Ephemeris:
2016 UF57                a,e,i = 0.93, 0.30, 44                  q = 0.6540
Date    TT    R. A. (2000) Decl.     Delta      r     Elong.  Phase     V
2016 10 01    07 55 34.5 -42 52 51   0.3246  0.9532    72.2    88.9    24.5
...
2016 10 16    06 12 21.3 -44 12 58   0.1556  1.0259    96.4    74.9    22.5
...
2016 10 24    03 06 13.6 -29 51 53   0.09025 1.0603   135.0    41.6    20.4
...
2016 10 30    00 36 50.1 +02 04 19   0.1014  1.0839   152.5    25.1    20.3
2016 10 31    00 20 13.7 +06 14 06   0.1089  1.0877   149.1    27.9    20.5
2016 11 01    00 05 45.8 +09 48 27   0.1174  1.0914   145.6    31.0    20.8
...
2016 11 07    23 10 31.5 +22 30 35   0.1811  1.1124   128.3    44.4    22.1
...
2016 11 15    22 39 32.0 +29 08 12   0.2786  1.1371   115.5    51.7    23.3
...
2016 11 30    22 24 15.1 +34 03 33   0.4655  1.1736   101.8    55.3    24.6

A. U. Tomatic                (C) Copyright 2016 MPC           M.P.E.C. 2016-U126




More information about the Iaude mailing list